Location: Ash Swamp
(41.5170°N, 74.6157°W)
Time: 01:15:31
(UTC+00:00)

ADEOS II - Pass Details

Date: 14 July 2020
Orbit: 799 x 801 km, 98.5° (Epoch: 14 August)

Event Time Altitude Azimuth Distance (km) Brightness Sun altitude
Rises 08:01:41 0° 6° (N) 3,319 6.2 -14.7°
Reaches altitude 10° 08:04:07 10° 359° (N) 2,384 5.2 -14.4°
Maximum altitude 08:09:02 41° 291° (WNW) 1,144 2.7 -13.8°
Enters shadow 08:12:22 19° 230° (SW) 1,820 3.3 -13.4°
